Wind_Speed
32 31 32 33 33 31 29 26 24 23 23 25 25 24 24 24 24 22 21 23 25 27 27 27 27 26 26 26 26 26 25 25 24 24 23 23 22 22 21 20 18 17 16 16 16 15 14 13 12 12 11 10 9 7 6 5 6 6 6 7 8 9 11
34 32 34 35 35 33 31 28 26 25 24 25 27 25 25 25 26 25 24 23 26 28 29 28 28 27 27 26 26 26 25 26 25 24 24 23 23 23 21 20 19 18 17 16 16 15 15 14 13 13 12 11 10 9 8 8 8 8 8 8 9 10 11
35 33 36 38 37 36 34 31 28 27 26 27 28 27 26 26 27 27 25 24 27 30 31 31 30 29 28 28 27 26 26 26 26 25 25 24 24 23 21 20 19 18 18 17 17 16 15 15 14 13 13 13 12 11 10 10 9 9 9 9 9 10 11
37 35 38 39 39 38 37 34 31 30 29 28 28 29 27 27 28 29 28 27 28 31 34 34 33 31 31 30 29 28 27 27 27 26 26 25 25 23 22 21 20 20 19 19 18 17 16 16 15 15 14 14 13 13 12 11 10 10 9 9 10 11 11
40 37 39 41 41 41 40 37 34 33 32 30 28 29 29 28 29 31 31 29 30 32 34 35 35 34 33 33 32 30 29 28 27 27 26 26 25 23 23 23 22 22 21 20 19 18 17 17 16 16 16 15 14 13 12 12 12 11 9 9 11 12 12
43 40 42 44 44 44 43 41 37 35 33 31 28 28 29 29 30 32 32 31 31 32 35 36 37 37 36 35 35 33 32 30 29 27 26 26 25 25 25 25 25 24 23 21 20 19 18 18 18 17 16 14 14 13 13 13 13 12 11 11 11 12 13
47 45 45 47 46 45 45 43 40 36 34 32 29 29 29 30 31 32 32 32 32 32 35 37 38 39 38 37 36 35 33 31 29 28 27 27 27 27 28 27 26 25 23 22 21 20 20 19 18 17 16 15 14 14 14 15 15 14 13 13 13 13 14
50 49 47 48 45 44 45 44 41 38 35 33 31 29 29 30 32 33 33 33 33 33 35 37 39 40 39 38 37 35 33 31 29 29 30 30 30 30 30 28 27 26 24 24 23 22 20 19 18 17 17 17 16 16 16 17 17 16 15 15 15 16 16
52 51 48 47 43 41 43 44 42 40 38 35 32 30 29 30 32 34 34 34 33 34 35 37 39 40 40 39 38 36 34 32 32 32 33 33 33 32 31 29 28 27 26 25 23 22 21 21 20 19 19 19 19 18 18 18 18 18 17 17 18 18 20
52 52 49 46 43 41 43 44 43 42 40 37 34 32 31 31 31 33 35 36 35 35 36 38 39 40 42 41 39 37 36 35 35 35 35 35 35 33 32 31 29 28 26 25 24 24 23 23 22 21 21 20 20 19 19 19 19 19 19 20 20 22 23
52 53 50 46 45 44 44 45 46 46 43 39 37 35 34 32 31 32 35 37 38 37 37 39 40 41 42 43 42 40 38 37 37 37 37 36 36 34 33 32 31 29 28 27 26 26 25 24 23 22 22 21 20 20 20 20 20 21 22 23 24 25 25
51 53 51 48 47 47 46 47 49 48 45 42 39 37 36 35 33 32 33 36 39 39 38 39 41 42 43 44 44 42 40 39 39 39 38 38 37 36 35 34 32 31 30 29 29 28 27 25 24 22 22 21 21 21 21 21 22 23 25 26 27 28 27
50 52 52 49 48 48 48 48 49 48 46 45 42 39 38 37 35 33 32 33 37 40 40 39 41 43 45 46 46 45 43 42 41 40 40 39 38 38 37 35 34 33 32 31 30 29 27 26 24 23 22 22 21 21 22 22 24 25 27 28 30 30 30
48 51 52 50 47 47 50 51 50 49 48 47 44 41 39 38 37 34 31 31 35 39 40 39 41 43 46 47 48 48 46 44 43 42 41 41 41 40 38 37 36 35 34 33 32 30 28 27 26 25 24 23 23 24 24 25 26 27 29 30 31 32 33
48 50 51 50 48 47 50 53 52 51 50 48 46 43 41 40 38 36 33 31 33 38 40 40 41 43 46 48 49 49 47 46 45 44 43 43 43 42 40 39 38 37 36 34 33 32 30 29 28 27 26 26 26 27 27 28 29 29 30 31 32 33 35
48 50 50 49 48 46 49 52 54 53 51 49 47 45 44 42 39 38 36 33 32 35 39 41 41 43 46 48 49 49 48 47 45 45 45 45 44 43 42 41 40 39 38 36 35 33 32 30 29 28 28 28 28 29 30 30 31 31 32 33 33 34 35
49 49 48 47 47 46 47 50 53 53 52 50 49 47 46 43 41 39 37 35 33 33 37 40 41 43 45 48 49 50 49 47 46 45 45 45 45 45 44 43 42 41 40 38 37 35 33 32 31 30 30 30 30 31 32 32 32 32 33 34 35 35 35
47 47 45 45 46 46 47 49 51 53 52 52 51 49 47 45 43 40 39 37 34 32 33 36 39 41 44 47 50 50 50 48 47 46 45 45 45 45 45 44 44 43 42 40 39 37 35 34 33 32 32 32 33 33 33 33 34 34 35 35 36 36 36
45 44 43 44 46 47 48 49 51 53 54 54 53 52 49 47 45 43 41 39 36 33 31 33 36 39 41 45 49 50 50 49 48 46 46 45 45 44 44 44 44 43 42 41 40 39 37 36 35 35 34 34 34 35 35 35 35 35 35 35 36 36 37
43 42 41 41 43 45 47 49 51 53 55 56 55 54 51 49 47 45 43 40 37 35 33 32 33 36 39 42 46 48 48 48 47 46 46 46 46 45 45 45 43 42 41 40 40 39 38 37 37 37 37 36 36 36 36 35 35 34 34 35 37 38 38
40 39 38 39 41 43 46 47 50 53 55 56 56 55 53 51 49 47 45 42 40 38 35 33 32 33 35 38 42 45 46 46 45 45 45 46 47 47 48 47 45 43 41 40 40 39 39 39 39 39 38 38 38 37 36 35 34 34 35 36 38 39 39
38 38 38 38 40 43 45 46 48 52 55 57 57 56 55 53 50 48 46 44 42 40 37 34 32 32 33 35 38 41 43 44 44 44 44 44 46 47 48 48 46 44 42 41 41 41 41 41 41 40 39 39 38 37 36 35 35 35 36 36 37 38 39
39 38 38 38 39 41 43 46 47 50 53 56 57 56 55 53 51 48 47 46 44 42 39 36 34 32 32 33 34 37 39 41 43 43 43 44 45 47 47 47 46 45 44 43 43 43 43 42 41 40 40 39 38 37 36 36 36 36 35 35 36 38 40
40 40 40 39 38 39 40 43 45 48 51 54 56 57 56 55 53 51 49 47 46 44 41 39 36 35 33 31 31 31 34 37 40 41 43 44 45 46 46 46 45 44 44 44 44 44 43 42 41 40 40 39 38 37 37 36 36 35 35 36 37 39 41
41 41 41 40 38 38 39 40 43 46 49 52 54 56 57 57 56 54 51 49 47 45 43 41 39 38 38 34 31 29 30 32 36 39 41 43 45 45 46 45 44 44 44 44 44 44 43 41 41 40 40 39 39 38 37 36 36 37 37 38 39 41 43
42 41 41 41 40 39 39 39 40 42 45 49 51 54 56 57 58 56 54 52 49 47 46 44 41 40 40 37 33 31 31 31 33 36 39 42 44 45 45 45 45 44 44 44 44 43 42 42 41 41 40 40 39 38 38 38 38 39 40 40 41 43 45
44 42 41 41 41 41 40 38 37 38 41 45 48 51 53 56 57 57 56 54 52 50 49 46 44 43 41 39 36 35 35 34 34 35 37 39 42 44 45 45 45 45 45 44 44 43 43 42 42 41 40 40 40 40 40 40 41 41 42 43 44 45 46
46 44 43 42 42 42 41 39 36 37 39 41 44 47 50 53 55 57 57 56 55 53 52 50 48 46 45 42 40 39 39 39 38 37 37 37 39 42 43 44 44 44 44 43 43 43 43 42 41 41 40 41 41 42 43 43 43 44 44 45 46 46 45
49 47 46 44 43 42 42 40 37 36 37 38 40 43 46 49 52 55 56 57 57 56 55 53 51 49 48 46 45 43 43 42 41 40 39 39 39 41 42 42 42 43 43 43 43 43 43 42 42 42 42 43 44 44 45 45 45 46 46 47 46 45 44
52 51 49 46 44 42 41 40 38 37 37 37 38 39 42 45 48 51 53 55 57 57 57 56 54 52 51 49 47 46 45 44 44 43 42 42 42 42 42 42 42 42 43 43 43 43 44 44 44 45 45 46 46 47 47 47 47 47 47 46 45 43 40
56 54 52 49 46 44 43 41 39 38 37 37 37 37 39 41 43 46 49 52 54 55 56 55 55 53 52 51 50 49 48 47 46 46 45 45 45 44 44 44 44 44 44 44 44 45 46 46 46 47 48 48 48 48 48 47 46 45 45 44 42 39 36
58 56 54 51 48 46 44 43 41 40 39 38 37 36 37 38 39 42 45 48 51 52 53 54 54 53 52 51 50 50 50 50 49 49 48 47 46 46 46 46 46 47 47 47 47 47 48 48 48 49 49 49 49 48 47 45 44 44 43 42 39 36 35
56 55 54 52 49 47 46 44 43 41 40 39 38 37 37 37 37 39 41 43 46 49 51 52 53 53 52 52 51 51 51 51 51 50 50 49 48 48 48 49 49 49 50 49 50 50 50 50 51 51 50 50 49 48 46 45 44 43 41 39 37 37 37
59 56 55 54 52 50 48 47 45 43 41 40 40 39 38 37 37 37 38 39 41 43 46 49 51 52 53 53 53 53 53 52 52 52 51 51 51 51 52 52 52 52 52 52 52 52 52 52 52 51 51 50 49 47 45 44 42 41 40 39 39 39 39
64 60 57 56 55 53 51 50 47 45 43 43 42 41 40 39 38 37 37 37 38 39 40 43 45 48 51 52 54 54 55 55 55 54 54 54 54 54 54 54 54 54 54 54 53 53 52 52 51 50 49 48 47 45 43 42 41 40 40 40 40 40 40
66 62 59 57 57 56 55 53 50 47 46 46 45 44 43 42 40 39 39 38 38 37 37 38 40 42 45 47 49 51 52 53 54 54 54 54 55 55 54 54 54 54 54 53 53 52 51 50 49 47 47 45 44 43 42 41 41 41 41 42 42 42 43
67 65 62 59 58 58 57 56 54 52 50 48 47 47 46 45 43 42 41 40 39 38 38 37 37 39 40 42 43 45 46 47 48 49 50 51 52 52 52 52 52 52 52 52 52 51 50 49 47 46 45 44 43 43 42 42 42 43 43 44 44 45 45
70 69 65 63 61 59 58 57 56 55 53 51 50 49 49 48 48 47 45 44 43 41 40 39 38 38 39 40 40 41 41 42 43 44 45 47 48 49 49 50 50 50 50 50 49 49 48 47 45 45 44 44 43 43 43 44 44 45 45 45 46 46 46
Wind_Direction
243 240 238 236 233 232 233 231 226 223 218 211 209 208 208 209 210 210 213 219 219 215 214 213 210 206 206 207 207 207 208 210 211 209 206 205 205 207 208 208 207 206 204 201 201 203 202 201 201 202 203 204 206 217 231 247 263 277 292 306 317 327 336
243 237 235 234 233 230 231 230 225 222 218 212 209 209 210 210 211 210 211 216 219 216 214 214 212 208 207 210 213 212 212 213 215 214 212 210 210 211 211 210 208 206 203 201 201 202 202 201 203 205 207 211 218 229 240 251 264 277 290 303 316 327 333
245 236 231 232 232 230 229 228 224 221 217 213 210 210 210 210 210 210 209 213 218 217 215 214 212 209 207 209 213 215 215 216 217 217 216 215 214 214 212 209 207 204 201 200 200 201 202 203 206 209 214 221 228 237 246 254 263 274 287 302 315 322 326
245 235 229 229 230 229 227 225 222 219 217 214 212 210 210 209 207 205 205 210 215 217 217 216 213 209 207 208 211 214 216 217 218 218 218 218 217 215 212 207 205 203 201 201 202 203 205 208 211 215 221 228 236 244 252 258 264 272 285 299 308 314 317
243 235 229 228 227 226 226 224 221 219 217 215 214 212 211 210 207 202 201 205 212 216 219 219 215 211 208 208 210 211 214 216 216 217 218 219 218 215 210 207 206 204 204 206 208 210 213 216 220 224 228 234 242 250 257 262 266 270 277 289 298 305 309
240 235 230 226 224 224 224 223 220 219 218 216 216 215 212 211 209 206 201 202 208 215 219 220 218 214 211 210 210 210 212 213 214 214 214 215 215 213 211 210 209 208 208 210 212 216 220 224 229 233 237 242 249 257 263 265 266 268 271 280 290 297 303
236 233 230 226 222 221 222 222 220 219 217 216 217 217 214 211 210 210 207 206 207 212 218 221 221 219 217 215 213 211 211 212 212 212 211 211 211 213 214 214 214 213 212 213 216 220 224 231 237 243 248 254 259 265 270 271 270 269 271 277 286 293 298
232 233 231 228 224 221 222 223 221 218 217 216 218 218 217 214 211 211 211 210 208 210 216 221 222 222 221 219 216 214 211 211 211 211 211 211 212 214 216 217 218 218 217 218 221 225 230 236 242 248 255 260 265 270 275 279 280 279 279 283 288 293 295
231 233 232 231 227 222 221 223 221 220 219 217 218 219 219 217 215 213 212 211 210 210 214 219 223 223 222 220 218 215 211 209 210 211 212 213 214 216 218 219 220 221 223 225 228 233 238 243 247 251 255 259 264 269 274 280 283 285 287 289 290 293 295
229 232 232 231 228 223 221 221 221 221 221 219 218 219 219 218 218 217 214 212 212 210 211 217 222 224 223 221 219 217 212 210 211 213 214 215 217 218 220 222 223 225 227 231 235 240 244 248 251 254 256 259 262 266 271 276 281 283 285 288 289 291 293
227 231 231 229 227 224 220 219 220 221 221 220 220 220 219 218 219 219 217 215 214 211 210 214 219 223 223 222 220 218 214 212 213 215 217 218 220 221 222 224 226 228 231 235 239 243 246 250 253 257 260 263 266 269 273 278 281 282 283 284 286 288 290
226 230 231 227 225 224 221 219 220 221 221 221 221 220 219 218 219 220 220 219 217 214 211 211 215 220 222 222 220 218 216 215 215 217 219 221 223 223 224 226 229 231 234 238 242 245 249 251 255 259 264 268 272 275 277 278 280 280 281 282 284 286 290
226 228 230 227 224 223 223 222 221 221 221 221 221 221 220 219 219 220 222 222 220 218 215 212 213 217 221 222 220 218 217 217 217 219 221 224 226 227 227 229 231 234 237 241 244 248 251 254 257 260 264 268 273 277 279 279 279 279 280 281 284 287 291
227 228 230 229 224 221 222 224 223 222 221 222 222 222 222 222 222 222 223 224 222 219 218 215 213 215 219 221 221 219 218 218 219 220 222 225 228 230 231 233 235 237 240 244 247 249 252 254 257 260 263 268 272 275 278 279 280 281 283 284 287 289 291
227 227 227 228 225 219 219 222 223 222 222 222 223 224 224 224 224 224 225 226 223 221 220 219 216 215 218 221 222 221 219 219 219 221 223 226 229 232 235 237 238 241 244 246 249 250 252 254 257 261 265 269 273 276 278 280 281 283 286 288 290 290 291
228 227 226 226 225 221 218 219 221 223 223 223 224 225 225 225 225 226 227 228 226 224 223 222 220 217 218 220 222 222 221 220 221 223 225 227 230 234 237 239 241 244 247 249 251 252 253 255 258 262 267 271 275 277 279 281 283 286 288 290 290 290 291
228 228 226 226 226 223 220 219 220 221 222 223 223 224 225 225 226 228 228 228 227 226 225 225 224 222 220 220 221 222 222 222 223 225 227 230 232 235 238 241 244 246 249 251 252 253 253 255 259 263 268 272 275 278 280 282 284 286 288 288 289 290 290
228 228 226 225 226 225 223 221 220 220 221 222 223 224 225 225 226 227 228 227 226 226 227 227 228 228 226 223 222 221 222 223 224 227 229 232 235 237 241 243 246 248 250 252 253 254 254 256 259 263 268 272 275 278 280 281 284 286 287 288 288 288 289
229 228 225 223 224 225 224 222 221 221 221 222 223 224 225 226 226 227 228 227 226 226 228 229 231 232 231 230 226 224 222 223 225 228 230 233 236 239 242 244 247 249 251 252 253 254 255 258 261 265 269 273 275 277 280 282 284 286 287 287 286 287 289
229 229 227 225 225 226 225 224 223 222 223 223 224 225 225 227 227 228 229 228 228 228 229 230 232 233 233 233 232 229 226 224 225 228 231 234 237 240 243 245 247 250 251 252 252 254 257 260 263 268 271 274 276 277 280 283 284 285 285 285 286 288 290
227 229 228 227 227 227 227 226 224 223 224 224 225 225 226 227 227 228 229 229 229 229 230 230 232 234 234 234 234 233 231 229 228 229 231 234 237 240 243 245 247 249 250 251 253 255 258 261 265 268 271 273 275 278 281 282 282 283 283 284 286 288 290
224 227 227 226 226 227 227 226 225 224 224 225 225 226 227 227 228 229 230 230 230 230 231 232 233 234 234 234 233 234 233 232 232 231 232 234 237 240 243 245 246 248 250 252 254 256 259 262 265 268 270 272 275 278 279 279 280 281 282 283 285 287 290
222 225 227 227 227 227 227 227 226 225 226 226 226 227 227 228 228 229 230 231 231 231 232 233 233 235 235 234 233 233 235 235 235 235 234 235 237 239 242 245 247 249 251 252 254 256 259 262 265 267 269 272 274 275 276 277 279 280 281 282 284 287 289
222 225 227 228 228 229 229 228 227 226 226 227 227 226 227 227 228 228 229 230 230 231 232 232 233 234 235 234 233 233 235 236 237 237 238 238 239 241 243 245 248 250 251 253 255 256 259 261 264 266 268 271 272 273 274 275 276 277 279 281 283 286 288
223 225 227 227 228 229 230 229 228 226 226 227 228 227 227 227 227 227 228 229 230 230 231 231 232 233 234 234 234 235 236 237 237 238 239 240 241 242 244 246 247 250 251 253 255 256 258 260 262 264 266 269 271 272 272 273 273 275 277 279 282 284 286
223 224 227 228 227 227 229 229 229 227 226 227 227 228 228 228 228 228 228 228 229 230 230 231 231 231 232 233 235 237 237 237 237 237 238 239 241 243 244 246 247 248 250 253 255 256 258 259 260 262 265 267 268 269 270 271 273 275 277 279 281 283 284
223 224 227 230 230 229 228 228 228 228 227 227 226 226 227 228 229 229 230 229 230 230 230 231 230 229 230 233 235 236 237 237 237 237 237 238 240 242 244 245 246 248 250 252 254 255 256 258 259 261 263 264 266 267 269 271 274 276 278 279 281 282 283
222 223 226 229 231 232 232 230 228 227 226 227 227 226 226 226 228 229 230 230 230 230 231 231 231 230 231 233 233 234 235 236 237 237 237 237 239 241 243 245 246 248 249 251 252 254 256 257 259 260 261 263 265 267 269 271 273 275 277 279 280 281 282
221 222 224 227 230 233 235 233 230 228 226 226 227 228 227 227 227 228 229 230 230 231 231 231 231 231 231 232 232 233 234 236 237 238 239 238 239 240 242 244 246 247 249 250 252 253 255 257 258 260 261 263 265 267 269 271 273 276 277 278 279 279 280
221 222 223 225 227 231 235 235 233 232 230 227 226 228 229 229 229 229 229 230 231 232 232 233 232 232 232 233 233 234 235 236 238 239 240 240 241 241 242 244 246 247 249 250 252 253 255 257 259 260 262 263 265 267 269 271 274 276 276 276 276 277 277
219 221 222 224 225 228 232 235 235 234 233 229 226 227 228 229 230 231 231 232 232 233 234 235 235 235 236 236 235 235 236 237 238 239 240 241 242 243 244 245 246 248 249 250 252 254 256 257 259 261 262 263 265 267 269 272 273 273 273 272 273 273 274
219 219 221 223 224 225 229 232 234 235 235 233 228 227 228 228 230 231 232 233 233 234 235 236 237 237 237 237 237 237 236 237 237 238 239 240 241 243 244 245 246 248 249 250 252 253 255 257 258 260 262 264 265 267 269 270 269 268 268 268 269 270 271
221 220 220 221 223 224 226 228 231 234 235 236 234 231 230 230 230 231 232 233 234 234 235 236 236 237 237 237 237 238 237 237 237 237 238 239 240 242 243 245 246 247 248 250 251 252 254 256 257 259 261 263 264 266 266 265 265 265 266 266 267 269 271
225 222 221 221 222 224 225 225 228 231 234 236 238 238 236 235 234 233 233 234 234 235 235 236 236 237 237 237 238 238 239 239 239 239 240 240 241 242 243 245 247 248 249 250 252 253 255 256 258 259 260 261 262 262 262 262 262 263 264 265 267 270 272
226 224 222 221 222 224 225 225 226 229 233 235 237 239 241 240 239 238 237 236 236 236 236 236 237 237 237 238 238 239 240 241 241 242 242 243 243 244 245 246 248 249 250 251 252 254 255 256 257 258 258 259 259 258 258 258 259 261 263 266 268 271 273
227 226 223 222 222 223 225 227 228 229 231 233 235 238 240 242 243 243 242 241 239 238 238 238 239 238 238 238 239 240 240 241 242 243 244 244 244 245 245 246 247 248 250 251 252 253 254 254 254 254 254 254 254 254 255 256 258 260 263 266 269 271 273
228 228 226 224 223 223 225 228 230 230 230 231 233 235 237 240 242 244 245 244 243 241 240 240 240 242 242 241 240 240 241 241 242 242 243 244 244 244 245 245 246 247 248 249 250 251 251 251 251 251 251 251 252 252 254 256 258 261 264 267 270 272 275
227 229 228 226 225 225 225 227 229 231 231 231 232 234 235 236 238 241 242 243 244 243 242 241 242 243 245 245 244 243 243 242 242 242 242 242 243 244 244 244 245 245 246 247 247 247 248 248 248 249 249 250 252 253 255 257 259 262 265 268 271 274 276
Height
10951 10953 10953 10954 10956 10959 10960 10961 10963 10964 10966 10968 10969 10970 10971 10972 10974 10976 10978 10980 10983 10985 10986 10987 10989 10991 10993 10994 10995 10997 10999 11001 11002 11003 11005 11005 11006 11007 11008 11009 11010 11011 11012 11013 11013 11014 11014 11015 11015 11016 11016 11016 11017 11017 11017 11017 11016 11016 11016 11016 11016 11015 11015
10946 10949 10949 10950 10952 10955 10957 10958 10960 10962 10963 10965 10966 10967 10969 10970 10972 10974 10976 10978 10981 10983 10984 10986 10988 10989 10991 10993 10994 10996 10998 11000 11001 11003 11004 11005 11005 11006 11007 11008 11009 11010 11011 11011 11012 11012 11013 11014 11014 11014 11015 11015 11016 11016 11016 11016 11016 11016 11015 11015 11015 11015 11014
10940 10944 10945 10945 10948 10951 10954 10955 10957 10959 10960 10961 10963 10964 10966 10968 10970 10972 10974 10976 10978 10980 10982 10983 10985 10987 10989 10991 10992 10995 10996 10998 11000 11002 11003 11004 11004 11005 11006 11007 11008 11009 11009 11010 11011 11011 11012 11012 11013 11013 11014 11014 11014 11015 11015 11015 11015 11015 11015 11014 11014 11014 11014
10933 10939 10940 10942 10944 10947 10950 10952 10953 10955 10956 10958 10960 10962 10964 10965 10967 10969 10971 10973 10975 10977 10978 10980 10982 10984 10986 10987 10990 10992 10994 10996 10999 11001 11002 11003 11004 11005 11006 11006 11007 11007 11008 11008 11009 11010 11010 11011 11012 11012 11012 11013 11013 11014 11014 11014 11014 11014 11014 11014 11013 11013 11013
10926 10932 10935 10937 10940 10942 10945 10948 10949 10951 10953 10956 10957 10959 10961 10962 10963 10965 10967 10970 10972 10974 10976 10978 10980 10981 10983 10984 10987 10989 10992 10994 10997 10999 11001 11002 11003 11004 11005 11005 11005 11006 11006 11007 11008 11008 11009 11010 11010 11010 11011 11012 11012 11012 11012 11013 11013 11013 11013 11013 11012 11012 11011
10918 10925 10929 10931 10935 10937 10940 10943 10946 10948 10950 10953 10954 10956 10957 10959 10961 10962 10964 10966 10968 10971 10973 10975 10977 10978 10979 10981 10983 10986 10988 10991 10994 10997 11000 11002 11003 11003 11003 11003 11004 11004 11005 11006 11006 11007 11007 11008 11008 11009 11010 11010 11011 11011 11011 11011 11011 11011 11011 11012 11011 11011 11010
10911 10917 10920 10924 10929 10933 10936 10939 10942 10945 10947 10949 10951 10952 10954 10956 10958 10960 10962 10964 10966 10968 10970 10972 10974 10975 10977 10978 10980 10983 10985 10989 10992 10995 10998 10999 11001 11001 11001 11002 11002 11003 11004 11004 11005 11005 11006 11006 11007 11007 11008 11008 11009 11009 11009 11009 11009 11010 11010 11010 11010 11010 11009
10905 10909 10913 10918 10925 10930 10933 10936 10940 10942 10944 10946 10947 10949 10952 10954 10955 10957 10959 10961 10963 10965 10967 10969 10971 10973 10975 10977 10979 10981 10984 10987 10990 10992 10994 10996 10998 10998 10999 11000 11001 11002 11002 11003 11003 11004 11004 11005 11005 11006 11006 11006 11007 11007 11007 11007 11007 11008 11008 11008 11008 11008 11007
10900 10903 10908 10913 10920 10928 10931 10933 10937 10939 10941 10943 10945 10947 10949 10950 10952 10954 10956 10959 10960 10962 10964 10966 10968 10971 10973 10975 10977 10979 10982 10984 10986 10988 10991 10993 10995 10996 10997 10999 10999 11000 11001 11001 11002 11002 11002 11003 11004 11004 11005 11005 11005 11006 11006 11006 11006 11006 11006 11006 11006 11005 11005
10896 10898 10903 10909 10916 10922 10926 10929 10933 10934 10937 10940 10942 10944 10945 10947 10949 10951 10953 10955 10957 10959 10961 10963 10966 10968 10970 10972 10974 10976 10978 10981 10983 10985 10987 10990 10992 10994 10995 10996 10997 10998 10999 10999 11000 11000 11000 11001 11001 11002 11003 11003 11004 11004 11004 11004 11004 11004 11004 11003 11003 11002 11002
10893 10894 10898 10905 10910 10915 10921 10925 10927 10929 10933 10936 10938 10940 10942 10944 10946 10947 10949 10951 10953 10955 10957 10959 10962 10964 10967 10970 10971 10973 10975 10978 10980 10982 10984 10987 10989 10991 10993 10994 10995 10996 10997 10997 10997 10998 10998 10998 10999 11000 11000 11001 11001 11002 11002 11002 11002 11001 11001 11000 11000 11000 10999
10890 10890 10894 10900 10904 10909 10915 10919 10921 10924 10929 10932 10934 10936 10939 10940 10942 10944 10946 10948 10950 10951 10952 10955 10958 10960 10964 10966 10968 10970 10972 10974 10976 10979 10982 10984 10986 10988 10990 10991 10993 10994 10994 10994 10995 10995 10995 10996 10997 10997 10997 10998 10998 10999 10999 10999 10999 10998 10998 10997 10997 10997 10997
10886 10886 10889 10895 10900 10905 10911 10914 10917 10921 10925 10927 10929 10932 10934 10936 10938 10941 10943 10945 10946 10948 10949 10951 10953 10956 10959 10962 10965 10967 10968 10970 10973 10976 10979 10981 10983 10985 10987 10989 10990 10991 10991 10992 10992 10993 10993 10994 10994 10995 10995 10995 10995 10996 10996 10996 10996 10995 10995 10994 10994 10994 10994
10882 10883 10885 10890 10897 10903 10907 10909 10913 10917 10920 10922 10925 10928 10930 10932 10935 10938 10940 10941 10943 10945 10946 10947 10949 10952 10955 10958 10961 10963 10965 10967 10970 10973 10975 10977 10979 10981 10984 10986 10987 10988 10988 10989 10990 10990 10991 10991 10992 10992 10993 10993 10993 10993 10993 10993 10993 10993 10992 10992 10991 10991 10990
10876 10877 10880 10885 10893 10899 10902 10905 10908 10911 10914 10918 10921 10924 10926 10929 10932 10934 10936 10938 10939 10941 10943 10944 10946 10948 10951 10954 10957 10960 10962 10964 10966 10969 10971 10974 10976 10978 10981 10983 10984 10985 10985 10986 10987 10988 10988 10989 10989 10990 10990 10990 10991 10991 10990 10990 10990 10990 10989 10989 10989 10988 10987
10870 10871 10876 10882 10888 10894 10898 10900 10903 10907 10911 10914 10917 10919 10922 10925 10927 10930 10933 10935 10936 10938 10940 10941 10943 10945 10947 10950 10954 10957 10959 10961 10963 10965 10967 10970 10973 10975 10977 10979 10980 10981 10982 10983 10984 10985 10986 10986 10987 10987 10987 10987 10987 10987 10987 10987 10987 10987 10987 10986 10986 10985 10984
10864 10867 10873 10879 10884 10889 10893 10896 10899 10903 10907 10910 10912 10914 10917 10920 10923 10926 10928 10930 10932 10934 10936 10938 10940 10942 10944 10947 10950 10953 10955 10957 10959 10961 10964 10967 10969 10972 10974 10976 10977 10978 10979 10980 10981 10982 10983 10984 10984 10984 10984 10984 10984 10984 10984 10984 10984 10984 10983 10983 10982 10982 10981
10860 10864 10870 10876 10880 10884 10888 10891 10895 10898 10901 10904 10907 10909 10912 10915 10918 10921 10923 10926 10928 10931 10933 10935 10937 10939 10941 10944 10947 10949 10951 10953 10955 10958 10960 10963 10966 10969 10971 10973 10974 10975 10976 10977 10978 10979 10980 10981 10981 10981 10981 10981 10981 10981 10981 10981 10981 10980 10980 10979 10978 10977 10977
10858 10861 10866 10871 10874 10878 10882 10885 10889 10893 10896 10898 10901 10904 10907 10911 10914 10916 10919 10922 10925 10928 10930 10932 10935 10937 10939 10941 10944 10946 10947 10949 10952 10954 10957 10960 10963 10966 10968 10969 10970 10972 10973 10974 10975 10975 10976 10978 10978 10978 10978 10978 10978 10977 10977 10977 10977 10977 10976 10975 10973 10973 10973
10856 10859 10863 10867 10870 10873 10877 10881 10884 10887 10890 10893 10896 10900 10904 10907 10909 10912 10916 10919 10922 10924 10926 10929 10931 10934 10936 10938 10941 10943 10945 10946 10948 10951 10954 10957 10960 10962 10963 10965 10966 10968 10970 10971 10971 10972 10973 10974 10974 10974 10974 10974 10974 10974 10974 10974 10974 10973 10972 10971 10969 10968 10968
10854 10856 10860 10863 10866 10868 10871 10875 10879 10882 10884 10887 10890 10895 10899 10901 10904 10908 10912 10915 10917 10920 10922 10925 10928 10931 10933 10935 10937 10939 10942 10943 10945 10948 10951 10954 10956 10958 10959 10960 10962 10964 10966 10967 10967 10968 10969 10969 10969 10970 10970 10970 10969 10970 10970 10970 10970 10969 10969 10967 10965 10964 10964
10851 10853 10855 10858 10860 10863 10865 10869 10873 10877 10879 10881 10885 10890 10894 10897 10900 10904 10907 10910 10913 10916 10919 10922 10925 10927 10929 10931 10933 10935 10938 10940 10943 10945 10948 10950 10952 10953 10954 10956 10958 10960 10962 10963 10964 10964 10965 10965 10965 10965 10966 10965 10965 10966 10966 10966 10965 10965 10965 10964 10962 10961 10960
10848 10849 10851 10854 10857 10859 10861 10865 10869 10872 10875 10877 10881 10885 10890 10893 10897 10900 10903 10906 10910 10913 10916 10919 10921 10923 10926 10927 10930 10932 10934 10937 10939 10942 10945 10947 10948 10949 10950 10952 10954 10956 10958 10959 10959 10960 10960 10960 10961 10961 10961 10960 10961 10961 10962 10961 10961 10961 10961 10960 10959 10957 10955
10844 10845 10847 10850 10854 10856 10858 10862 10865 10869 10871 10873 10876 10880 10884 10888 10892 10895 10898 10902 10905 10908 10911 10914 10916 10919 10922 10924 10926 10928 10930 10933 10936 10938 10941 10943 10944 10944 10946 10948 10950 10952 10953 10953 10954 10955 10955 10956 10956 10956 10956 10955 10956 10956 10957 10957 10957 10957 10957 10956 10955 10953 10952
10840 10841 10843 10847 10850 10852 10854 10857 10860 10864 10866 10868 10871 10875 10878 10882 10886 10889 10893 10897 10900 10903 10906 10908 10912 10915 10918 10920 10923 10925 10927 10929 10932 10934 10936 10938 10939 10940 10942 10944 10945 10947 10948 10948 10949 10950 10951 10952 10952 10951 10951 10951 10951 10951 10952 10952 10952 10952 10952 10952 10951 10950 10948
10835 10837 10839 10841 10845 10847 10849 10851 10855 10858 10862 10865 10867 10870 10873 10877 10881 10884 10888 10892 10895 10898 10901 10904 10907 10911 10913 10916 10918 10920 10923 10925 10927 10929 10931 10933 10934 10936 10937 10939 10940 10942 10942 10943 10943 10945 10946 10946 10946 10946 10946 10946 10946 10946 10946 10947 10947 10947 10947 10947 10947 10946 10944
10829 10832 10833 10835 10838 10841 10843 10846 10850 10854 10857 10860 10862 10866 10869 10872 10876 10879 10883 10887 10890 10893 10895 10899 10903 10906 10908 10910 10913 10915 10917 10919 10922 10924 10926 10928 10929 10930 10931 10933 10934 10936 10937 10938 10938 10939 10940 10940 10941 10942 10942 10941 10941 10941 10942 10942 10942 10942 10942 10942 10941 10941 10940
10823 10825 10827 10830 10833 10835 10838 10842 10846 10849 10851 10854 10857 10860 10863 10866 10870 10873 10877 10880 10884 10887 10890 10893 10896 10899 10902 10904 10907 10909 10911 10914 10916 10919 10921 10923 10924 10925 10926 10927 10929 10930 10931 10932 10933 10933 10934 10935 10935 10936 10936 10936 10936 10936 10937 10937 10938 10937 10937 10937 10936 10935 10935
10816 10820 10823 10826 10829 10831 10834 10837 10841 10844 10846 10849 10852 10854 10857 10861 10864 10867 10870 10874 10877 10880 10883 10886 10890 10893 10895 10898 10900 10903 10906 10908 10911 10913 10916 10918 10919 10920 10920 10922 10923 10924 10925 10926 10927 10928 10928 10928 10929 10930 10931 10931 10931 10931 10932 10932 10933 10932 10932 10931 10931 10931 10930
10811 10814 10819 10822 10825 10827 10829 10832 10836 10839 10842 10846 10848 10850 10853 10856 10858 10861 10864 10867 10870 10873 10876 10880 10883 10887 10889 10892 10895 10898 10900 10903 10906 10908 10910 10912 10913 10914 10915 10917 10918 10919 10920 10921 10922 10922 10922 10923 10923 10924 10925 10925 10925 10926 10926 10927 10928 10927 10926 10925 10925 10925 10925
10805 10809 10814 10819 10822 10824 10825 10828 10831 10834 10837 10841 10844 10846 10848 10851 10853 10856 10859 10861 10864 10867 10870 10874 10878 10881 10883 10886 10889 10892 10895 10897 10900 10902 10904 10906 10908 10909 10910 10912 10913 10913 10914 10915 10916 10916 10917 10917 10918 10918 10918 10919 10919 10920 10921 10922 10922 10921 10919 10919 10920 10920 10920
10799 10805 10810 10814 10818 10820 10822 10824 10826 10829 10832 10836 10839 10842 10844 10846 10849 10851 10853 10856 10859 10861 10865 10868 10871 10874 10877 10880 10883 10886 10889 10891 10893 10896 10898 10900 10902 10904 10905 10906 10906 10907 10908 10909 10910 10910 10911 10911 10912 10912 10912 10913 10913 10914 10915 10915 10915 10914 10913 10914 10914 10915 10915
10795 10801 10806 10810 10813 10816 10818 10820 10823 10825 10828 10831 10834 10837 10839 10842 10844 10846 10849 10851 10854 10857 10860 10862 10865 10868 10871 10874 10876 10879 10881 10884 10886 10889 10892 10894 10896 10897 10898 10899 10899 10900 10901 10902 10903 10904 10904 10905 10906 10906 10906 10907 10907 10908 10909 10908 10908 10907 10908 10908 10909 10909 10910
10788 10795 10800 10804 10808 10811 10814 10817 10819 10822 10824 10827 10829 10832 10834 10837 10839 10842 10845 10847 10850 10852 10855 10857 10860 10863 10865 10867 10869 10872 10874 10877 10879 10882 10885 10887 10889 10890 10891 10891 10892 10893 10894 10895 10896 10897 10898 10899 10900 10900 10900 10900 10901 10902 10903 10902 10902 10902 10902 10903 10903 10903 10904
10780 10788 10794 10798 10802 10805 10809 10812 10815 10818 10820 10822 10824 10827 10830 10832 10835 10837 10840 10843 10846 10848 10850 10852 10855 10857 10859 10861 10863 10865 10868 10871 10873 10876 10879 10880 10882 10883 10884 10885 10885 10886 10887 10888 10889 10890 10891 10893 10893 10894 10894 10894 10895 10896 10897 10897 10897 10897 10897 10897 10897 10897 10897
10773 10780 10787 10792 10796 10799 10803 10806 10810 10813 10815 10817 10820 10823 10825 10828 10831 10833 10836 10838 10841 10844 10846 10848 10849 10851 10853 10855 10857 10860 10862 10865 10868 10870 10872 10873 10874 10875 10876 10878 10878 10879 10880 10881 10882 10883 10885 10886 10887 10887 10888 10888 10889 10890 10891 10891 10891 10891 10891 10891 10891 10891 10891
10766 10772 10779 10785 10790 10794 10797 10800 10804 10807 10810 10812 10815 10818 10821 10824 10827 10829 10831 10833 10836 10839 10841 10843 10845 10846 10847 10849 10852 10854 10857 10859 10862 10863 10864 10865 10866 10868 10869 10871 10872 10873 10874 10874 10876 10877 10878 10879 10880 10881 10882 10882 10883 10884 10885 10885 10885 10885 10885 10885 10884 10884 10884
10759 10765 10771 10778 10783 10787 10791 10795 10798 10801 10804 10807 10810 10813 10816 10819 10821 10823 10825 10828 10830 10833 10836 10838 10841 10842 10842 10844 10846 10848 10850 10852 10854 10855 10857 10858 10859 10861 10863 10864 10865 10866 10867 10868 10869 10870 10871 10873 10874 10875 10876 10876 10877 10877 10878 10878 10879 10879 10879 10879 10878 10878 10878